Location: Fort Providence
(61.3560°N, 117.6690°W)
Time: 06:06:18
(UTC-06:00)

ISS - Visible Passes

Search period start: 22 July 2019 00:00
Search period end: 01 August 2019 00:00
Orbit: 409 x 418 km, 51.6° (Epoch: 22 July)

Date Brightness Start Highest point End Pass type
(mag) Time Alt. Az. Time Alt. Az. Time Alt. Az.
22 Jul -2.0 01:09:32 10° SW 01:11:28 15° S 01:13:18 10° SSE visible
23 Jul -2.0 00:20:19 10° SW 00:22:25 16° S 00:24:31 10° SSE visible
24 Jul -1.7 01:07:49 10° SW 01:09:06 12° SSW 01:10:00 11° S visible
25 Jul -1.8 00:18:18 10° SW 00:20:03 14° SSW 00:21:49 10° SSE visible
27 Jul -1.4 00:17:04 10° SSW 00:17:36 10° SSW 00:18:07 10° SSW visible
